| time (UTC) | temp F | wind direction | speed MPH | gust MPH | rain 1hr in | rain 24hr in | rain mn in | humidity % | barometer mb |
| 20260506061544 | 61 | 15 | 12.0 | 21.0 | 0.00 | 0.02 | 0.02 | 91 | 1026.3 |
| 20260506044538 | 62 | 27 | 19.0 | 28.0 | 0.00 | 0.02 | 0.02 | 89 | 1026.4 |
| 20260506043054 | 62 | 351 | 17.0 | 27.0 | 0.00 | 0.02 | 0.02 | 89 | 1026.4 |
| 20260506043026 | 62 | 349 | 18.0 | 27.0 | 0.00 | 0.02 | 0.02 | 88 | 1026.4 |
| 20260506041547 | 62 | 356 | 18.0 | 28.0 | 0.00 | 0.02 | 0.02 | 89 | 1026.4 |
| 20260506040059 | 62 | 25 | 17.0 | 25.0 | 0.00 | 0.02 | 0.02 | 89 | 1026.5 |
| 20260506034531 | 62 | 30 | 14.0 | 30.0 | 0.00 | 0.02 | 0.02 | 89 | 1026.4 |
| 20260506033054 | 62 | 26 | 24.0 | 31.0 | 0.00 | 0.02 | 0.02 | 88 | 1026.4 |
| 20260506031539 | 62 | 19 | 16.0 | 27.0 | 0.00 | 0.02 | 0.02 | 88 | 1026.3 |
| 20260506030030 | 62 | 38 | 15.0 | 28.0 | 0.00 | 0.02 | 0.02 | 88 | 1026.2 |
| 20260506024526 | 62 | 29 | 18.0 | 29.0 | 0.00 | 0.02 | 0.02 | 87 | 1026.3 |
| 20260506023042 | 62 | 341 | 20.0 | 29.0 | 0.00 | 0.02 | 0.02 | 86 | 1026.3 |
| 20260506021548 | 62 | 20 | 15.0 | 25.0 | 0.00 | 0.02 | 0.02 | 85 | 1026.1 |
| 20260506020019 | 63 | 23 | 19.0 | 31.0 | 0.00 | 0.02 | 0.02 | 84 | 1026.2 |
| 20260506014549 | 62 | 18 | 18.0 | 29.0 | 0.00 | 0.02 | 0.02 | 85 | 1026.3 |
| 20260506013044 | 62 | 36 | 16.0 | 27.0 | 0.00 | 0.02 | 0.02 | 85 | 1026.4 |
| 20260506011524 | 62 | 19 | 20.0 | 31.0 | 0.00 | 0.02 | 0.02 | 84 | 1026.6 |
| 20260506010003 | 62 | 20 | 21.0 | 33.0 | 0.00 | 0.02 | 0.02 | 84 | 1026.7 |
| 20260506004539 | 63 | 2 | 18.0 | 27.0 | 0.00 | 0.02 | 0.02 | 83 | 1026.9 |
| 20260506003027 | 62 | 6 | 16.0 | 25.0 | 0.00 | 0.02 | 0.02 | 83 | 1027.1 |
| 20260506001521 | 62 | 16 | 14.0 | 26.0 | 0.00 | 0.02 | 0.02 | 84 | 1027.1 |
| 20260506000053 | 62 | 15 | 11.0 | 24.0 | 0.00 | 0.02 | 0.02 | 84 | 1027.4 |
| 20260505234612 | 62 | 10 | 13.0 | 22.0 | 0.00 | 0.02 | 0.02 | 84 | 1027.5 |
| 20260505233011 | 61 | 27 | 15.0 | 25.0 | 0.00 | 0.02 | 0.02 | 86 | 1027.5 |
| 20260505231526 | 61 | 17 | 15.0 | 26.0 | 0.00 | 0.02 | 0.02 | 87 | 1027.7 |
| 20260505230032 | 60 | 7 | 14.0 | 22.0 | 0.00 | 0.02 | 0.02 | 87 | 1027.7 |
| 20260505224533 | 59 | 53 | 12.0 | 20.0 | 0.00 | 0.02 | 0.02 | 89 | 1027.8 |
| 20260505223030 | 59 | 13 | 15.0 | 25.0 | 0.00 | 0.02 | 0.02 | 90 | 1027.7 |
| 20260505221528 | 58 | 51 | 12.0 | 20.0 | 0.02 | 0.02 | 0.02 | 93 | 1027.8 |
| 20260505220023 | 58 | 15 | 13.0 | 16.0 | 0.02 | 0.02 | 0.02 | 93 | 1027.9 |
| 20260505214557 | 58 | 31 | 12.0 | 17.0 | 0.02 | 0.02 | 0.02 | 93 | 1027.9 |
| 20260505213031 | 58 | 6 | 11.0 | 17.0 | 0.02 | 0.02 | 0.02 | 94 | 1028.1 |
| 20260505211540 | 58 | 55 | 11.0 | 19.0 | 0.01 | 0.01 | 0.01 | 93 | 1028.1 |
| 20260505204524 | 58 | 29 | 7.0 | 15.0 | 0.00 | 0.00 | 0.00 | 92 | 1028.3 |
| 20260505203006 | 58 | 19 | 9.0 | 22.0 | 0.00 | 0.00 | 0.00 | 90 | 1028.4 |
| 20260505201507 | 59 | 32 | 13.0 | 21.0 | 0.00 | 0.00 | 0.00 | 88 | 1028.3 |
| 20260505200003 | 59 | 46 | 10.0 | 20.0 | 0.00 | 0.00 | 0.00 | 86 | 1028.0 |
| 20260505194502 | 59 | 5 | 10.0 | 17.0 | 0.00 | 0.00 | 0.00 | 86 | 1028.0 |
| 20260505193050 | 59 | 112 | 8.0 | 13.0 | 0.00 | 0.00 | 0.00 | 85 | 1028.0 |
| 20260505191503 | 59 | 67 | 9.0 | 17.0 | 0.00 | 0.00 | 0.00 | 85 | 1027.9 |
| 20260505190003 | 58 | 30 | 9.0 | 17.0 | 0.00 | 0.00 | 0.00 | 85 | 1027.9 |
| 20260505184601 | 58 | 26 | 10.0 | 16.0 | 0.00 | 0.00 | 0.00 | 86 | 1028.0 |
| 20260505183102 | 58 | 45 | 10.0 | 16.0 | 0.00 | 0.00 | 0.00 | 86 | 1028.0 |
| 20260505181559 | 58 | 23 | 4.0 | 12.0 | 0.00 | 0.00 | 0.00 | 85 | 1028.0 |
| 20260505174555 | 58 | 33 | 5.0 | 13.0 | 0.00 | 0.00 | 0.00 | 85 | 1028.2 |
| 20260505173054 | 58 | 20 | 5.0 | 19.0 | 0.00 | 0.00 | 0.00 | 83 | 1028.3 |
| 20260505171556 | 59 | 352 | 8.0 | 12.0 | 0.00 | 0.00 | 0.00 | 81 | 1028.3 |
| 20260505170053 | 58 | 64 | 6.0 | 15.0 | 0.00 | 0.00 | 0.00 | 81 | 1028.3 |
| 20260505164551 | 58 | 65 | 9.0 | 15.0 | 0.00 | 0.00 | 0.00 | 83 | 1028.5 |
| 20260505163050 | 58 | 5 | 7.0 | 15.0 | 0.00 | 0.00 | 0.00 | 83 | 1028.5 |
| 20260505161544 | 59 | 84 | 11.0 | 17.0 | 0.00 | 0.00 | 0.00 | 80 | 1028.8 |
| 20260505151545 | 59 | 354 | 10.0 | 19.0 | 0.00 | 0.00 | 0.00 | 77 | 1029.3 |
| 20260505140109 | 60 | 344 | 10.0 | 15.0 | 0.00 | 0.00 | 0.00 | 73 | 1029.9 |
| 20260505124513 | 58 | 345 | 6.0 | 9.0 | 0.00 | 0.00 | 0.00 | 76 | 1030.3 |
| 20260505123038 | 58 | 329 | 0.0 | 3.0 | 0.00 | 0.00 | 0.00 | 75 | 1030.5 |
| 20260505121524 | 58 | 55 | 2.0 | 6.0 | 0.00 | 0.00 | 0.00 | 75 | 1030.5 |
| 20260505120106 | 58 | 5 | 5.0 | 11.0 | 0.00 | 0.00 | 0.00 | 75 | 1030.5 |
| 20260505114509 | 57 | 36 | 4.0 | 9.0 | 0.00 | 0.00 | 0.00 | 76 | 1030.6 |
| 20260505113105 | 56 | 54 | 3.0 | 6.0 | 0.00 | 0.00 | 0.00 | 77 | 1030.6 |
| 20260505111525 | 56 | 8 | 3.0 | 8.0 | 0.00 | 0.00 | 0.00 | 78 | 1030.6 |
| 20260505101533 | 57 | 42 | 5.0 | 11.0 | 0.00 | 0.00 | 0.00 | 73 | 1031.2 |
| 20260505100024 | 57 | 31 | 5.0 | 10.0 | 0.00 | 0.00 | 0.00 | 72 | 1031.2 |
| 20260505094527 | 57 | 53 | 5.0 | 11.0 | 0.00 | 0.00 | 0.00 | 71 | 1031.1 |
| 20260505093032 | 57 | 25 | 4.0 | 10.0 | 0.00 | 0.00 | 0.00 | 72 | 1031.1 |
| 20260505091525 | 57 | 17 | 3.0 | 10.0 | 0.00 | 0.00 | 0.00 | 72 | 1031.1 |
| 20260505090029 | 57 | 45 | 5.0 | 9.0 | 0.00 | 0.00 | 0.00 | 72 | 1031.0 |
| 20260505084527 | 57 | 95 | 3.0 | 10.0 | 0.00 | 0.00 | 0.00 | 73 | 1031.1 |
| 20260505083020 | 57 | 34 | 7.0 | 14.0 | 0.00 | 0.00 | 0.00 | 72 | 1031.2 |
| 20260505081521 | 57 | 44 | 6.0 | 13.0 | 0.00 | 0.00 | 0.00 | 73 | 1031.3 |
| 20260505080026 | 57 | 41 | 4.0 | 13.0 | 0.00 | 0.00 | 0.00 | 74 | 1031.3 |
| 20260505074518 | 56 | 34 | 0.0 | 6.0 | 0.00 | 0.00 | 0.00 | 75 | 1031.4 |
| 20260505073017 | 56 | 60 | 4.0 | 8.0 | 0.00 | 0.00 | 0.00 | 77 | 1031.5 |
| 20260505071517 | 55 | 48 | 4.0 | 9.0 | 0.00 | 0.00 | 0.00 | 79 | 1031.5 |
| 20260505070022 | 55 | 95 | 3.0 | 9.0 | 0.00 | 0.00 | 0.00 | 80 | 1031.5 |
| 20260505064517 | 55 | 74 | 2.0 | 7.0 | 0.00 | 0.00 | 0.00 | 80 | 1031.4 |
| 20260505063016 | 55 | 43 | 3.0 | 12.0 | 0.00 | 0.00 | 0.00 | 80 | 1031.4 |